Location: ??
(30.5732°N, 114.5293°E)
Time: 20:48:03
(UTC+00:00)

Daily predictions for brighter satellites

Satellite Brightness Start Highest point End
(mag) Time Altitude Azimuth Time Altitude Azimuth Time Altitude Azimuth
Cosmos 1606 Rocket 4.3 12:02:58 10° NNW 12:07:21 57° W 12:11:43 10° S
SL-16 R/B 2.7 12:02:47 10° SSW 12:08:24 67° WNW 12:14:03 10° NNE
USA 186 1.8 12:06:17 10° S 12:09:38 87° W 12:12:56 10° NNW
NOSS 3-1 (C) 4.5 12:01:49 10° NNW 12:09:55 75° WSW 12:18:50 10° SSE
Cosmos 2285 Rocket 4.0 12:05:45 10° NNW 12:12:03 77° ENE 12:18:19 10° SSE
CZ-2C R/B 2.6 12:08:01 10° NNE 12:13:22 74° ESE 12:18:35 10° S
ATLAS 5 CENTAUR R/B 1.2 12:14:33 10° SSW 12:18:29 72° ESE 12:22:42 10° NNE
FREGAT/IRIS 2.5 12:16:01 10° S 12:18:38 71° WSW 12:21:17 10° NNW
Cosmos 1461 4.2 12:14:33 10° N 12:18:50 33° ENE 12:22:13 14° ESE
Ariane Rocket 3.1 12:13:47 10° S 12:18:51 79° WSW 12:23:59 10° NNW
Cosmos 1626 4.2 12:16:12 10° SW 12:19:28 30° W 12:22:46 10° NNW
GEOS 3 Rocket 4.1 12:15:24 10° NE 12:20:23 38° ESE 12:25:19 10° S
USA 229 DEB 4.3 12:17:47 10° NW 12:25:10 66° WSW 12:32:47 10° SSE
USA 229 4.3 12:17:52 10° NW 12:25:16 67° WSW 12:32:54 10° SSE
DMSP B5D2-2 4.2 12:21:33 10° N 12:26:46 81° WNW 12:31:57 10° SSW
Cosmos 1356 Rocket 3.6 12:26:43 10° NNW 12:30:56 74° W 12:35:04 10° S
OAO 2 Rocket 3.8 12:26:47 10° W 12:32:01 65° NNW 12:37:19 10° ENE
Delta 2 Rocket 4.3 12:30:07 10° WNW 12:33:21 34° N 12:36:26 10° ENE
NOSS 3-3 (A) 4.3 12:30:05 10° S 12:35:04 34° ESE 12:40:23 10° NE
NOSS 3-3 (C) 4.4 12:30:12 10° S 12:35:10 33° ESE 12:40:29 10° NE
NOSS 3-1 (A) 4.4 12:27:26 10° NNW 12:35:34 80° WSW 12:43:54 12° SSE
Cosmos 1602 Rocket 3.5 12:31:40 10° S 12:36:03 77° E 12:40:28 10° N
SL-08 R/B 4.5 12:30:19 10° S 12:36:35 81° E 12:42:48 10° N
H-2A R/B 3.7 12:32:28 10° SSW 12:37:20 34° W 12:42:15 10° NNW
Cosmos 1125 Rocket 3.9 12:32:37 10° N 12:37:43 49° ENE 12:41:04 20° SE
Cosmos 1812 Rocket 4.3 12:34:01 10° NNE 12:37:56 33° E 12:39:52 22° SE
Hubble Space Telescope 2.6 12:36:22 10° SSW 12:38:02 15° SSE 12:38:02 15° SSE
SPOT 3 Rocket 3.5 12:41:00 16° SSE 12:45:15 76° ENE 12:50:28 10° N
Cosmos 2298 Rocket 4.3 12:44:03 10° NNW 12:49:20 67° WSW 12:53:52 14° S
Cosmos 2322 Rocket 4.2 12:50:26 10° SW 12:55:19 30° WNW 13:00:13 10° N
Meteor 1-21 Rocket 4.3 12:49:48 10° S 12:55:40 86° W 13:01:38 10° N
Geosat 4.1 12:56:35 28° SE 12:59:11 64° ENE 13:04:10 10° NNW
Resurs 01 Rocket 1.5 13:01:21 30° SSE 13:03:28 78° ENE 13:07:52 10° N
Cosmos-2242 4.0 13:03:32 10° NNE 13:07:23 30° E 13:07:40 30° E
Cosmos 1745 Rocket 4.1 13:02:51 10° S 13:09:00 76° W 13:15:15 10° N
Cosmos 1400 Rocket 3.7 13:10:38 10° NNE 13:13:55 31° ENE 13:13:55 31° ENE
COSMOS 2428 2.8 13:14:22 29° S 13:17:03 54° ESE 13:22:34 10° NNE
USA 215 3.2 13:11:45 10° NE 13:18:19 90° ESE 13:24:51 10° SW
Cosmos 1538 Rocket 4.2 13:17:35 39° SSE 13:19:04 51° ESE 13:24:13 10° NNE
Cosmos 2322 3.8 13:14:26 10° SSW 13:20:08 77° WNW 13:25:53 10° NNE
Cosmos 1758 Rocket 3.9 13:18:49 22° SSW 13:21:39 66° W 13:26:07 10° N
MetOp-B 4.1 13:21:25 41° SSE 13:23:20 75° ENE 13:28:41 10° N
USA 245 3.9 13:24:33 36° NE 13:24:33 36° NE 13:27:16 10° N
Cosmos 1844 4.3 13:21:55 10° N 13:27:17 40° ENE 13:28:27 36° E
Cosmos 2237 Rocket 3.8 13:30:51 19° ENE 13:30:51 19° ENE 13:33:15 10° NE
DELTA 2 R/B (1) 3.8 13:23:36 10° WSW 13:29:10 71° NNW 13:34:45 10° ENE
Cosmos 2219 Rocket 2.0 13:26:20 21° SSW 13:30:06 83° ESE 13:35:43 10° NNE
SAR-Lupe-2 3.9 13:28:26 10° NNE 13:31:20 54° NNE 13:31:20 54° NNE
Cosmos 2360 Rocket 4.1 13:27:55 10° WSW 13:32:43 29° WNW 13:37:34 10° N
Cosmos 2263 Rocket 4.1 13:29:11 10° NW 13:33:23 22° W 13:37:33 10° SSW
Cosmos 1328 4.3 13:32:19 38° SW 13:33:31 55° W 13:37:25 10° N
Cosmos 773 Rocket 4.3 13:29:04 13° SSW 13:33:43 68° WNW 13:39:00 10° N
ERS-1 Rocket 3.7 13:36:49 37° ENE 13:36:59 37° ENE 13:41:36 10° N
Cosmos 1455 2.9 13:36:54 10° NNW 13:40:37 48° W 13:40:59 46° WSW
OAO 3 Rocket 3.4 13:35:56 10° WNW 13:40:50 69° NNE 13:41:45 55° ENE
Atlas Centaur 2 2.4 13:35:47 10° W 13:41:40 87° S 13:44:24 40° E
NOSS 0 Rocket 4.2 13:42:46 46° E 13:42:46 46° E 13:48:26 10° NE
Cosmos 2333 Rocket 2.4 13:37:38 12° SSW 13:42:48 69° WNW 13:48:30 10° NNE
Cosmos 1953 Rocket 3.6 13:44:25 62° SW 13:44:54 69° W 13:49:13 10° N
Alouette 2 Rocket 4.0 13:40:45 10° N 13:45:09 75° E 13:45:58 62° SE
SPOT 5 3.6 13:46:16 40° ENE 13:46:16 40° ENE 13:50:41 10° N
ATLAS CENTAUR R/B 3.9 13:43:36 10° W 13:46:15 21° SW 13:46:16 21° SW
BREEZE M DEB (TANK) 3.3 13:44:39 10° SW 13:48:05 78° NW 13:59:47 10° NE
Landsat 7 3.7 13:50:37 72° SSW 13:50:59 78° WSW 13:55:44 10° NNW
Cosmos 1709 Rocket 4.4 13:50:14 24° SSW 13:53:59 60° W 14:00:15 10° N
BREEZE-M DEB (TANK) 3.8 13:51:06 10° NW 13:54:28 47° NE 13:54:37 47° NE
Spot 2 Rocket 3.7 13:58:39 54° SW 13:59:22 60° W 14:04:24 10° NNW
ATLAS CENTAUR R/B 3.7 13:59:08 10° NNE 14:00:05 13° NNE 14:00:05 13° NNE
USA 81 4.1 14:06:15 67° SW 14:06:43 72° W 14:11:59 10° N
Delta 7925 Rocket 4.4 14:01:10 10° W 14:09:29 54° SSW 14:09:42 54° S
Cosmos 2184 Rocket 4.0 14:09:53 63° E 14:09:53 63° E 14:15:59 10° NNE
Cosmos 2278 Rocket 3.8 14:07:20 10° N 14:11:29 22° ENE 14:11:29 22° ENE
Cosmos 1844 Rocket 2.9 14:09:15 10° NNW 14:14:42 57° WSW 14:14:57 57° WSW
OAO 2 Rocket 4.0 14:12:04 10° WNW 14:17:16 53° N 14:17:53 50° NNE
SPOT 1/Viking Rocket 4.0 14:18:12 51° WSW 14:18:18 51° W 14:23:19 10° NNW
H-2A ROCKET BODY 4.0 14:12:10 10° W 14:18:33 61° S 14:54:47 10° ESE
Cosmos 923 Rocket 4.5 14:35:14 57° NNW 14:35:14 57° NNW 14:39:35 10° N
Terra 2.8 14:39:25 46° NNW 14:39:25 46° NNW 14:42:45 10° NNW
Cosmos 2154 Rocket 4.1 14:50:43 67° NNE 14:50:43 67° NNE 14:56:00 10° N
Cosmos 2221 4.4 14:45:40 10° N 14:47:50 29° N 14:47:50 29° N
ATLAS 2AS CENTAUR R/B 4.0 14:45:49 10° N 14:51:55 27° NE 14:53:02 26° ENE
Cosmos 1980 4.4 14:54:43 49° WNW 14:54:43 49° WNW 14:59:57 10° N
Nadezhda 3 Rocket 4.5 14:51:16 10° N 14:56:24 54° NE 14:56:24 54° NE
Cosmos 2237 Rocket 3.4 15:12:37 37° WNW 15:12:38 37° WNW 15:17:53 10° N
MOS 1-B Rocket 4.4 15:18:16 10° N 15:24:34 67° NNW 15:24:34 67° NNW
USA 267 4.0 15:27:21 43° NE 15:27:44 44° NE 15:33:51 10° NNW
Atlas Centaur 2 4.1 15:24:31 10° W 15:26:58 25° W 15:26:58 25° W
Cosmos 2344 4.4 15:35:20 33° W 15:38:01 44° NW 15:45:16 10° NNE
Cosmos 2278 Rocket 3.9 15:50:37 10° NW 15:53:19 26° NW 15:53:19 26° NW
SL-16 R/B 3.6 15:59:12 34° NNW 15:59:12 34° NNW 16:02:52 10° N
Cosmos 1943 Rocket 4.1 15:56:14 10° N 15:59:32 22° NE 15:59:32 22° NE
NOSS 3-4 (A) 4.3 16:08:07 10° NNW 16:13:50 58° NW 16:13:50 58° NW
NOSS 3-4 (C) 4.3 16:08:14 10° NNW 16:13:58 59° NW 16:13:58 59° NW
ATLAS 2AS CENTAUR R/B 3.9 16:36:15 10° NW 16:40:27 34° WNW 16:40:27 34° WNW
Cosmos 2369 Rocket 3.7 16:42:49 10° N 16:46:18 32° NNE 16:46:18 32° NNE
COSMOS 2455 3.9 16:45:22 10° NNW 16:49:23 40° N 16:49:23 40° N
SL-16 R/B 4.4 17:02:30 19° E 17:03:53 21° ENE 17:08:18 10° NNE
CZ-4C R/B 4.0 17:04:40 10° NNW 17:11:48 41° NE 17:15:32 27° ESE
CZ-2D R/B 4.0 17:09:20 10° NE 17:12:03 24° ENE 17:12:03 24° ENE
Cosmos 1943 Rocket 4.2 17:39:15 10° NW 17:41:01 19° NW 17:41:01 19° NW
Iridium 4 Rocket 4.4 17:46:29 53° N 17:46:29 53° N 17:50:50 10° N
Cosmos 1238 Rocket 4.3 18:06:44 54° NNW 18:06:44 54° NNW 18:11:15 10° N
SeaSat 1 3.9 18:05:38 10° N 18:08:50 30° NNW 18:08:50 30° NNW
Cosmos 2100 Rocket 4.2 18:11:34 65° E 18:11:41 65° E 18:17:55 10° NNE
Cosmos 1802 Rocket 4.4 18:19:40 52° ESE 18:20:25 55° E 18:26:37 10° NNE
Resurs 1-4 Rocket 2.9 18:16:33 10° N 18:20:34 44° NNW 18:20:34 44° NNW
Cosmos 2369 Rocket 4.5 18:27:42 10° NW 18:28:03 11° WNW 18:28:03 11° WNW
ADEOS II 2.3 18:26:30 10° NNE 18:31:30 65° E 18:31:30 65° E
Lacrosse 5 3.1 18:38:49 32° NW 18:38:49 32° NW 18:43:11 10° NNE
IRS-1D 3.6 18:35:32 10° N 18:39:50 66° NNW 18:39:50 66° NNW
Cosmos 1459 Rocket 3.7 18:40:30 77° WSW 18:40:40 77° W 18:46:45 10° N
Cosmos 2061 Rocket 4.1 18:44:46 58° SSE 18:46:06 77° E 18:52:28 10° N
SL-16 R/B 2.8 18:47:36 49° W 18:47:36 49° W 18:53:03 10° NNW
DELTA 2 R/B (1) 3.5 18:48:32 44° WNW 18:50:24 84° NNE 18:56:02 10° ESE
Cosmos 1725 Rocket 4.1 18:51:30 49° SSE 18:53:10 70° E 18:59:20 10° N
CZ-2D R/B 3.5 18:49:31 10° NNW 18:53:22 26° WNW 18:53:22 26° WNW
BREEZE-M DEB (TANK) 4.3 18:56:16 52° WSW 18:57:50 75° NW 19:17:50 10° NE
Cosmos 1500 4.0 19:00:20 47° N 19:00:20 47° N 19:03:07 10° N
CZ-4C R/B 3.4 18:53:09 10° NW 19:00:30 43° WSW 19:00:34 43° WSW
SL-08 R/B 4.4 18:59:07 51° S 19:00:51 85° E 19:07:08 10° N
ERS-1 4.5 18:56:35 10° NNE 19:01:41 74° ESE 19:02:25 62° SSE
SEDSat Delta rocket 3.9 18:59:15 37° W 19:02:08 89° N 19:08:33 10° E
Meteor 1-18 Rocket 4.1 18:56:44 10° NNW 19:02:32 71° W 19:03:14 64° SW
Okean 1-7 3.2 18:58:37 10° N 19:02:26 65° NNW 19:02:26 65° NNW
SL-8 R/B 3.7 19:06:10 69° WNW 19:06:22 70° NW 19:11:10 10° NE
Cosmos 1869 Rocket 4.1 19:11:05 44° NW 19:11:05 44° NW 19:14:33 10° N
CZ-2D R/B 3.9 19:08:33 10° NNE 19:12:53 60° E 19:13:36 51° SE
GOES 2 Rocket 3.7 19:11:21 46° WSW 19:13:21 74° S 19:18:46 10° E
Cosmos 407 Rocket 3.4 19:13:33 61° SW 19:14:21 72° WNW 19:19:42 10° NNE
Cosmos 1666 3.1 19:15:32 54° ESE 19:15:47 56° E 19:19:30 10° NNE
H-2A R/B 4.1 19:16:03 10° SE 19:19:52 28° ENE 19:23:40 10° NNE
COSMOS 2406 3.2 19:18:40 51° SW 19:20:05 71° WNW 19:25:51 10° NNE
IDEFIX/ARIANE 42P 2.9 19:15:34 10° NNE 19:20:42 61° E 19:22:59 32° SSE
Spot 4 Rocket 4.0 19:18:32 10° NNE 19:23:42 83° ESE 19:25:31 42° S
Cosmos 1437 Rocket 2.8 19:20:01 10° N 19:24:02 79° E 19:24:45 58° SSE
Centaur AC-72 3.9 19:25:51 29° SSW 19:27:07 31° S 19:32:16 10° ESE
ARIANE 5 R/B 2.6 19:22:13 10° N 19:27:13 61° WNW 19:28:25 47° SW
Cosmos 676 Rocket 4.2 19:25:15 36° S 19:27:20 67° ESE 19:32:33 10° NNE
CZ-2C R/B 3.5 19:23:27 10° NNE 19:27:24 51° E 19:28:45 35° SSE
ERS-2 3.9 19:26:48 10° SE 19:30:02 31° ENE 19:33:16 10° N
Cosmos 2016 Rocket 4.4 19:29:49 37° WSW 19:31:11 42° W 19:36:57 10° N
Cosmos 1140 Rocket 3.5 19:30:22 47° SW 19:31:42 65° WNW 19:36:53 10° N
OAO 3 Copernicus 4.4 19:32:00 49° SW 19:32:26 51° SSW 19:37:17 10° SE
SL-19 R/B 3.9 19:29:48 10° NNE 19:32:19 64° NE 19:32:19 64° NE
Cosmos 2082 Rocket 2.8 19:30:26 24° S 19:33:42 54° ESE 19:39:15 10° NNE
SWIFT 4.1 19:41:03 19° SSE 19:41:03 19° SSE 19:43:19 10° SE
CZ-3B R/B 4.0 19:38:19 26° SSW 19:41:05 30° S 19:45:22 10° ESE
H-2A R/B (2) 2.5 19:48:23 29° SSW 19:49:25 32° S 19:52:10 10° ESE
Meteor 1-11 Rocket 3.8 19:47:49 31° SW 19:50:17 54° W 19:55:43 10° N
GPS 2-04 Rocket1 3.9 19:49:06 16° WNW 19:51:41 37° N 19:55:23 10° ENE
Cosmos 1833 Rocket 2.9 19:51:04 30° SW 19:53:37 54° WNW 19:59:07 10° N
IUS-26 SRM-1 4.4 19:56:52 27° SW 19:59:20 53° SSE 20:21:06 10° E
Aureole 1 Rocket 3.7 20:00:21 27° W 20:01:18 31° WNW 20:05:18 10° N
ASTRO E2 2.7 20:01:21 23° W 20:03:44 77° N 20:07:42 10° E
Cosmos 1674 Rocket 3.8 20:01:46 10° N 20:06:07 68° E 20:10:23 10° SSE
Cosmos 1536 3.9 20:08:31 25° WSW 20:09:40 29° W 20:13:15 10° NNW
ADEOS II 4.1 20:08:57 10° NW 20:10:48 12° WNW 20:12:26 10° W
SL-08 R/B 4.3 20:10:02 23° WSW 20:11:13 25° W 20:15:06 10° NW
CZ-4B R/B 4.0 20:09:56 10° SE 20:12:43 24° ENE 20:15:34 10° NNE
Cosmos 1975 4.2 20:10:43 10° SSE 20:14:26 38° E 20:18:10 10° NNE
Cosmos 1908 Rocket 3.6 20:10:13 11° S 20:14:28 85° E 20:18:57 10° N
Cosmos 1733 Rocket 4.2 20:19:26 19° WSW 20:21:10 25° W 20:24:42 10° NNW
Delta 128 4.1 20:16:51 12° W 20:22:11 58° S 20:27:09 10° ESE
PAYLOAD A 4.1 20:19:46 10° N 20:25:05 81° WNW 20:30:30 10° SSW
Cosmos 1513 Rocket 4.4 20:24:05 10° S 20:30:08 78° W 20:36:18 10° N
CZ-2C R/B 2.3 20:25:19 10° N 20:30:09 84° W 20:34:48 10° SSW
Cosmos 1544 3.1 20:29:11 10° S 20:32:45 81° E 20:36:21 10° N
Cosmos 1378 3.2 20:29:58 10° N 20:33:43 83° E 20:37:27 10° S
Cosmos 1263 4.1 20:30:49 10° N 20:33:48 87° ENE 20:36:50 10° S
Cosmos 1656 3.9 20:29:28 10° NNW 20:34:38 45° WSW 20:39:47 10° S
GPS 2-14 Rocket1 4.5 20:32:30 13° SSW 20:34:46 19° S 20:37:42 10° SE
Cosmos 2369 3.8 20:31:28 10° NNW 20:37:13 83° ENE 20:42:57 10° SSE
Meteor 1-31 Rocket 4.2 20:36:02 10° NNE 20:39:44 39° E 20:43:25 10° S
SAR-Lupe-4 3.5 20:40:11 10° SSE 20:43:44 85° WSW 20:47:19 10° NNW
Cosmos 1743 3.6 20:41:41 11° SW 20:44:52 29° W 20:48:14 10° NNW
SEDSat Delta rocket 4.1 20:42:17 10° W 20:48:40 50° SSW 20:54:26 10° SE
NOSS 3-2 (A) 3.9 20:44:10 10° S 20:49:26 54° ESE 20:55:14 10° NE
deb Chang Zheng 4 4.1 20:45:29 10° N 20:49:28 41° WNW 20:53:29 10° SW
ATLAS 2A CENTAUR R/B 2.6 20:44:56 10° W 20:51:35 48° SSW 20:54:01 10° ESE
Cosmos 1975 Rocket 4.0 20:48:06 10° N 20:52:24 52° E 20:56:44 10° SSE
ALOS 3.1 20:50:44 10° NNE 20:55:18 54° E 20:59:51 10° S
H-2A R/B 3.5 20:52:32 10° SW 20:55:45 19° W 20:58:58 10° NW
Cosmos 1484 Rocket 3.2 20:51:58 10° NNE 20:55:50 64° E 20:59:37 10° S
Cosmos 1980 Rocket 2.7 20:50:24 10° NNW 20:56:05 67° ENE 21:01:42 10° SSE
Intercosmos 25 Rocket 4.1 20:53:09 10° N 20:57:05 76° E 21:03:14 10° S
IDEFIX/ARIANE 42P 4.5 20:57:34 10° NW 20:59:42 13° WNW 21:01:49 10° W
Cosmos 2278 3.8 20:55:03 10° NNW 21:00:48 87° ENE 21:06:30 10° SSE
Nadezhda 4 Rocket 4.2 20:56:16 10° N 21:02:36 83° E 21:08:55 10° S
CZ-3 R/B 4.2 20:23:48 10° WNW 21:05:24 49° SW 21:15:50 10° SSE
